When you browse on this site, cookies collect data to enhance your experience and personalize the content and advertising you see.
Visit our Privacy Policy to learn more. By continuing to use the site, you agree to this use of cookies and data.
  • In Germany
  • List of Countries
  • For 7 days
  • Water Temperature
  • Weather Map
  • Weather Widgets
  • user-avatar
    Login

    Hourly Weather Kerns

    Today, 28 February, Friday

    Time Temperature Precipitation Wind Pressure Humidity
    00:00 +26°C° 3.1 mm 3 mps 755 mmHg 97%
    01:00 +26°C° 3.1 mm 3 mps 755 mmHg 97%
    02:00 +26°C° 0.6 mm 3 mps 755 mmHg 97%
    03:00 +25°C° 0.6 mm 4 mps 755 mmHg 97%
    04:00 +25°C° 0 mm 4 mps 754 mmHg 96%
    05:00 +25°C° 0.1 mm 3 mps 754 mmHg 96%
    06:00 +26°C° 0.1 mm 3 mps 754 mmHg 96%
    07:00 +26°C° 0.1 mm 3 mps 755 mmHg 95%
    08:00 +29°C° 0 mm 2 mps 755 mmHg 84%
    09:00 +32°C° 0 mm 1 mps 755 mmHg 72%
    10:00 +33°C° 0 mm 0 mps 755 mmHg 58%
    11:00 +35°C° 0.1 mm 1 mps 755 mmHg 58%
    12:00 +36°C° 0.1 mm 1 mps 754 mmHg 57%
    13:00 +37°C° 0.1 mm 2 mps 754 mmHg 57%
    14:00 +35°C° 0.3 mm 1 mps 753 mmHg 59%
    15:00 +35°C° 0.3 mm 1 mps 753 mmHg 62%
    16:00 +34°C° 0 mm 1 mps 752 mmHg 64%
    17:00 +33°C° 0.3 mm 1 mps 753 mmHg 73%
    18:00 +29°C° 0.3 mm 0 mps 753 mmHg 81%
    19:00 +27°C° 0.3 mm 0 mps 754 mmHg 90%
    20:00 +27°C° 0 mm 0 mps 754 mmHg 90%
    21:00 +26°C° 0 mm 0 mps 755 mmHg 91%
    22:00 +28°C° 0 mm 1 mps 755 mmHg 91%
    23:00 +28°C° 0 mm 1 mps 755 mmHg 91%

    Tomorrow, 29 February, Saturday

    Time Temperature Precipitation Wind Pressure Humidity
    00:00 +27°C° 0 mm 1 mps 755 mmHg 91%
    01:00 +27°C° 0 mm 1 mps 755 mmHg 92%
    02:00 +27°C° 0 mm 1 mps 755 mmHg 91%
    03:00 +27°C° 0 mm 1 mps 754 mmHg 91%
    04:00 +27°C° 0 mm 1 mps 754 mmHg 90%
    05:00 +27°C° 0 mm 1 mps 755 mmHg 90%
    06:00 +27°C° 0 mm 1 mps 755 mmHg 89%
    07:00 +27°C° 0 mm 1 mps 755 mmHg 88%
    08:00 +29°C° 0 mm 2 mps 756 mmHg 76%
    09:00 +32°C° 0 mm 2 mps 756 mmHg 63%
    10:00 +35°C° 0 mm 2 mps 756 mmHg 50%
    11:00 +36°C° 0 mm 3 mps 756 mmHg 47%
    12:00 +37°C° 0 mm 3 mps 755 mmHg 44%
    13:00 +37°C° 0 mm 4 mps 755 mmHg 41%
    14:00 +37°C° 0 mm 4 mps 754 mmHg 44%
    15:00 +36°C° 0 mm 4 mps 754 mmHg 46%
    16:00 +35°C° 0 mm 5 mps 754 mmHg 49%
    17:00 +33°C° 0 mm 4 mps 754 mmHg 60%
    18:00 +30°C° 0 mm 4 mps 754 mmHg 72%
    19:00 +28°C° 0 mm 4 mps 755 mmHg 83%
    20:00 +28°C° 0 mm 4 mps 756 mmHg 87%
    21:00 +27°C° 0 mm 3 mps 756 mmHg 91%
    22:00 +26°C° 0 mm 3 mps 757 mmHg 94%
    23:00 +26°C° 0 mm 3 mps 757 mmHg 95%

    Day after tomorrow, 1 March, Sunday

    Time Temperature Precipitation Wind Pressure Humidity
    00:00 +26°C° 0 mm 3 mps 756 mmHg 96%
    01:00 +26°C° 0 mm 3 mps 756 mmHg 96%
    02:00 +26°C° 0 mm 3 mps 756 mmHg 96%
    03:00 +25°C° 0 mm 3 mps 755 mmHg 96%
    04:00 +25°C° 0 mm 2 mps 755 mmHg 96%
    05:00 +25°C° 0 mm 2 mps 755 mmHg 95%
    06:00 +26°C° 0 mm 2 mps 756 mmHg 94%
    07:00 +26°C° 0 mm 2 mps 756 mmHg 92%
    08:00 +28°C° 0 mm 3 mps 757 mmHg 81%
    09:00 +31°C° 0 mm 3 mps 757 mmHg 69%
    10:00 +34°C° 0 mm 3 mps 757 mmHg 58%
    11:00 +35°C° 0 mm 4 mps 757 mmHg 55%
    12:00 +36°C° 0 mm 4 mps 756 mmHg 53%
    13:00 +37°C° 0 mm 5 mps 756 mmHg 50%
    14:00 +36°C° 0 mm 5 mps 755 mmHg 54%
    15:00 +35°C° 0 mm 5 mps 755 mmHg 57%
    16:00 +35°C° 0 mm 5 mps 754 mmHg 61%
    17:00 +33°C° 0.2 mm 5 mps 755 mmHg 72%
    18:00 +30°C° 0.2 mm 4 mps 755 mmHg 82%
    19:00 +28°C° 0.2 mm 4 mps 755 mmHg 93%
    20:00 +27°C° 0 mm 3 mps 756 mmHg 94%
    21:00 +27°C° 0 mm 3 mps 756 mmHg 95%
    22:00 +26°C° 0 mm 3 mps 757 mmHg 96%
    23:00 +26°C° 0 mm 3 mps 757 mmHg 96%

    2 March, Monday

    Time Temperature Precipitation Wind Pressure Humidity
    00:00 +26°C° 0 mm 3 mps 756 mmHg 96%
    01:00 +25°C° 0 mm 2 mps 756 mmHg 96%
    02:00 +25°C° 0 mm 2 mps 756 mmHg 96%
    03:00 +25°C° 0 mm 2 mps 756 mmHg 96%
    04:00 +25°C° 0 mm 2 mps 755 mmHg 97%
    05:00 +25°C° 0 mm 2 mps 756 mmHg 96%
    06:00 +25°C° 0 mm 2 mps 756 mmHg 95%
    07:00 +25°C° 0 mm 2 mps 756 mmHg 94%
    08:00 +28°C° 0 mm 2 mps 757 mmHg 82%
    09:00 +31°C° 0 mm 2 mps 757 mmHg 70%
    10:00 +34°C° 0 mm 2 mps 757 mmHg 59%
    11:00 +35°C° 0 mm 3 mps 757 mmHg 56%
    12:00 +36°C° 0 mm 3 mps 756 mmHg 53%
    13:00 +37°C° 0 mm 4 mps 756 mmHg 50%
    14:00 +36°C° 0.1 mm 4 mps 755 mmHg 56%
    15:00 +35°C° 0.1 mm 4 mps 755 mmHg 62%
    16:00 +34°C° 0.1 mm 4 mps 754 mmHg 68%
    17:00 +32°C° 0.5 mm 4 mps 755 mmHg 77%
    18:00 +29°C° 0.5 mm 3 mps 755 mmHg 86%
    19:00 +28°C° 0.5 mm 3 mps 755 mmHg 95%
    20:00 +27°C° 0.1 mm 3 mps 756 mmHg 96%
    21:00 +27°C° 0.1 mm 3 mps 756 mmHg 97%
    22:00 +27°C° 0.1 mm 3 mps 757 mmHg 98%
    23:00 +26°C° 0 mm 2 mps 756 mmHg 98%

    3 March, Tuesday

    Time Temperature Precipitation Wind Pressure Humidity
    00:00 +26°C° 0 mm 2 mps 756 mmHg 98%
    01:00 +26°C° 0 mm 2 mps 756 mmHg 98%
    02:00 +26°C° 0 mm 2 mps 756 mmHg 98%
    03:00 +25°C° 0 mm 2 mps 755 mmHg 98%
    04:00 +25°C° 0 mm 2 mps 755 mmHg 98%
    05:00 +25°C° 0 mm 2 mps 755 mmHg 97%
    06:00 +26°C° 0 mm 2 mps 756 mmHg 96%
    07:00 +26°C° 0 mm 2 mps 756 mmHg 96%
    08:00 +28°C° 0 mm 2 mps 756 mmHg 85%
    09:00 +31°C° 0 mm 2 mps 756 mmHg 75%
    10:00 +34°C° 0 mm 2 mps 757 mmHg 65%
    11:00 +35°C° 0 mm 2 mps 756 mmHg 61%
    12:00 +35°C° 0 mm 2 mps 756 mmHg 57%
    13:00 +36°C° 0 mm 3 mps 755 mmHg 53%
    14:00 +36°C° 0 mm 3 mps 755 mmHg 55%
    15:00 +35°C° 0 mm 2 mps 754 mmHg 56%
    16:00 +35°C° 0 mm 2 mps 753 mmHg 58%
    17:00 +32°C° 0 mm 2 mps 754 mmHg 68%
    18:00 +30°C° 0 mm 2 mps 754 mmHg 78%
    19:00 +28°C° 0 mm 1 mps 755 mmHg 88%
    20:00 +28°C° 0 mm 1 mps 755 mmHg 90%
    21:00 +27°C° 0 mm 1 mps 756 mmHg 93%
    22:00 +27°C° 0 mm 1 mps 756 mmHg 95%
    23:00 +27°C° 0 mm 1 mps 756 mmHg 95%

    4 March, Wednesday

    Time Temperature Precipitation Wind Pressure Humidity
    00:00 +27°C° 0 mm 1 mps 756 mmHg 95%
    01:00 +26°C° 0 mm 1 mps 755 mmHg 95%
    02:00 +26°C° 0.1 mm 1 mps 755 mmHg 95%
    03:00 +26°C° 0.1 mm 1 mps 755 mmHg 95%
    04:00 +26°C° 0.1 mm 1 mps 755 mmHg 95%
    05:00 +26°C° 0.1 mm 1 mps 755 mmHg 93%
    06:00 +27°C° 0.1 mm 1 mps 755 mmHg 92%
    07:00 +27°C° 0.1 mm 1 mps 755 mmHg 90%
    08:00 +29°C° 0 mm 1 mps 756 mmHg 80%
    09:00 +32°C° 0 mm 1 mps 756 mmHg 70%
    10:00 +34°C° 0 mm 1 mps 756 mmHg 59%
    11:00 +34°C° 0 mm 1 mps 755 mmHg 60%
    12:00 +35°C° 0 mm 2 mps 755 mmHg 61%
    13:00 +36°C° 0 mm 2 mps 754 mmHg 61%
    14:00 +35°C° 0.3 mm 2 mps 754 mmHg 64%
    15:00 +35°C° 0.3 mm 2 mps 753 mmHg 66%
    16:00 +34°C° 0.3 mm 2 mps 753 mmHg 68%
    17:00 +32°C° 0.2 mm 1 mps 753 mmHg 76%
    18:00 +30°C° 0.2 mm 1 mps 754 mmHg 83%
    19:00 +28°C° 0.2 mm 1 mps 754 mmHg 90%
    20:00 +28°C° 0.1 mm 1 mps 755 mmHg 91%
    21:00 +28°C° 0.1 mm 1 mps 755 mmHg 93%
    22:00 +27°C° 0.1 mm 1 mps 756 mmHg 94%
    23:00 +27°C° 0 mm 1 mps 755 mmHg 94%
    Show more